Location: Fort Wayne
(41.1310°N, 85.1290°W)
Time: 14:33:51
(UTC-04:00)

Vanguard 3 - Visible Passes

Search period start: 01 September 2014 00:00
Search period end: 11 September 2014 00:00
Orbit: 508 x 3279 km, 33.4° (Epoch: 01 September)

Date Brightness Start Highest point End Pass type
(mag) Time Alt. Az. Time Alt. Az. Time Alt. Az.
01 Sep 9.6 20:20:37 10° W 20:36:28 55° SSW 20:45:45 10° ESE visible
01 Sep 9.5 22:39:13 10° W 22:48:20 25° SW 22:51:18 21° SSW visible
02 Sep 9.6 21:23:16 10° W 21:36:36 40° SSW 21:43:27 16° SSE visible
03 Sep 9.8 22:26:40 10° W 22:35:55 23° SW 22:40:22 16° S visible
04 Sep 9.9 21:10:20 10° W 21:24:08 37° SW 21:32:34 11° SSE visible
05 Sep 10.1 22:14:11 10° W 22:23:22 21° SW 22:29:33 11° S visible
06 Sep 10.1 20:57:26 10° W 21:11:32 35° SW 21:20:44 10° SSE visible
07 Sep 10.4 22:01:50 10° W 22:10:42 19° SW 22:17:22 10° S visible
08 Sep 10.3 20:44:34 10° W 20:58:47 32° SW 21:08:30 10° SSE visible
09 Sep 10.6 21:49:43 10° W 21:57:54 16° SW 22:04:24 10° SSW visible
10 Sep 10.6 20:31:49 10° W 20:45:55 29° SW 20:56:04 10° S visible
